H1 CPF 2 NER 2025 10 18 9 291 01 glonass132 H2 1401201 9132 39620 2025 10 18 0 0 0 2025 10 21 23 45 0 900 1 1 0 0 0 1 H9 10 0 60966 0.00000 0 -14061310.850 18682536.984 -10216939.772 10 0 60966 900.00000 0 -13333085.222 17432483.203 -13010917.329 10 0 60966 1800.00000 0 -12591069.917 15821958.200 -15552318.111 10 0 60966 2700.00000 0 -11892057.795 13877132.512 -17791684.319 10 0 60966 3600.00000 0 -11287957.260 11636410.852 -19685385.169 10 0 60966 4500.00000 0 -10823487.239 9149065.797 -21196473.801 10 0 60966 5400.00000 0 -10534188.477 6473422.291 -22295416.373 10 0 60966 6300.00000 0 -10444835.948 3674667.019 -22960678.490 10 0 60966 7200.00000 0 -10568320.500 822372.648 -23179156.890 10 0 60966 8100.00000 0 -10905048.155 -2012160.908 -22946447.172 10 0 60966 9000.00000 0 -11442883.724 -4758638.029 -22266941.502 10 0 60966 9900.00000 0 -12157642.325 -7350458.172 -21153753.538 10 0 60966 10800.00000 0 -13014109.134 -9727253.711 -19628471.143 10 0 60966 11700.00000 0 -13967545.090 -11837168.796 -17720740.982 10 0 60966 12600.00000 0 -14965615.338 -13638783.801 -15467692.527 10 0 60966 13500.00000 0 -15950658.917 -15102604.744 -12913212.395 10 0 60966 14400.00000 0 -16862203.277 -16212055.413 -10107083.190 10 0 60966 15300.00000 0 -17639616.437 -16963930.985 -7104004.094 10 0 60966 16200.00000 0 -18224783.448 -17368294.967 -3962513.057 10 0 60966 17100.00000 0 -18564692.638 -17447825.079 -743832.730 10 0 60966 18000.00000 0 -18613820.933 -17236637.364 2489335.975 10 0 60966 18900.00000 0 -18336216.243 -16778640.144 5674047.726 10 0 60966 19800.00000 0 -17707188.074 -16125489.466 8748348.570 10 0 60966 20700.00000 0 -16714534.513 -15334234.553 11652488.334 10 0 60966 21600.00000 0 -15359253.790 -14464754.588 14330085.193 10 0 60966 22500.00000 0 -13655710.733 -13577096.566 16729219.314 10 0 60966 23400.00000 0 -11631251.673 -12728827.526 18803434.385 10 0 60966 24300.00000 0 -9325284.609 -11972513.096 20512628.183 10 0 60966 25200.00000 0 -6787863.698 -11353428.284 21823815.967 10 0 60966 26100.00000 0 -4077837.597 -10907595.974 22711753.288 10 0 60966 27000.00000 0 -1260638.837 -10660234.282 23159407.749 10 0 60966 27900.00000 0 1594194.219 -10624676.445 23158272.261 10 0 60966 28800.00000 0 4415660.781 -10801807.023 22708515.225 10 0 60966 29700.00000 0 7133998.047 -11180036.629 21818965.995 10 0 60966 30600.00000 0 9683328.389 -11735815.201 20506936.763 10 0 60966 31500.00000 0 12004145.491 -12434661.670 18797884.729 10 0 60966 32400.00000 0 14045538.390 -13232666.718 16724921.045 10 0 60966 33300.00000 0 15767063.140 -14078405.950 14328175.547 10 0 60966 34200.00000 0 17140186.112 -14915183.897 11654028.777 10 0 60966 35100.00000 0 18149240.364 -15683515.564 8754225.103 10 0 60966 36000.00000 0 18791856.353 -16323742.317 5684882.908 10 0 60966 36900.00000 0 19078849.682 -16778672.976 2505419.899 10 0 60966 37800.00000 0 19033570.876 -16996139.713 -722586.750 10 0 60966 38700.00000 0 18690744.385 -16931361.395 -3936584.239 10 0 60966 39600.00000 0 18094845.217 -16549014.679 -7074249.646 10 0 60966 40500.00000 0 17298080.929 -15824924.909 -10074694.181 10 0 60966 41400.00000 0 16358063.321 -14747304.412 -12879643.032 10 0 60966 42300.00000 0 15335267.360 -13317484.401 -15434567.880 10 0 60966 43200.00000 0 14290383.988 -11550107.656 -17689749.919 10 0 60966 44100.00000 0 13281678.168 -9472771.604 -19601252.456 10 0 60966 45000.00000 0 12362463.574 -7125134.376 -21131783.704 10 0 60966 45900.00000 0 11578800.637 -4557518.929 -22251432.529 10 0 60966 46800.00000 0 10967515.493 -1829071.465 -22938262.187 10 0 60966 47700.00000 0 10554624.058 994450.783 -23178749.822 10 0 60966 48600.00000 0 10354228.550 3843171.499 -22968062.365 10 0 60966 49500.00000 0 10367933.873 6645764.103 -22310162.634 10 0 60966 50400.00000 0 10584809.437 9332186.690 -21217742.672 10 0 60966 51300.00000 0 10981898.790 11836369.260 -19711984.775 10 0 60966 52200.00000 0 11525256.117 14098741.015 -17822154.115 10 0 60966 53100.00000 0 12171466.090 16068491.864 -15585030.304 10 0 60966 54000.00000 0 12869582.690 17705473.295 -13044188.700 10 0 60966 54900.00000 0 13563404.511 18981658.832 -10249145.458 10 0 60966 55800.00000 0 14193989.330 19882102.924 -7254383.436 10 0 60966 56700.00000 0 14702300.306 20405358.460 -4118278.697 10 0 60966 57600.00000 0 15031870.344 20563336.259 -901949.661 10 0 60966 58500.00000 0 15131370.356 20380613.821 2331947.314 10 0 60966 59400.00000 0 14956971.333 19893224.179 5520450.959 10 0 60966 60300.00000 0 14474399.181 19146977.990 8601531.327 10 0 60966 61200.00000 0 13660594.691 18195391.667 11515303.868 10 0 60966 62100.00000 0 12504908.169 17097311.028 14205196.842 10 0 60966 63000.00000 0 11009778.350 15914332.282 16619048.926 10 0 60966 63900.00000 0 9190867.317 14708130.309 18710115.685 10 0 60966 64800.00000 0 7076646.246 13537807.312 20437965.977 10 0 60966 65700.00000 0 4707449.792 12457373.339 21769251.894 10 0 60966 66600.00000 0 2134039.061 11513463.874 22678338.711 10 0 60966 67500.00000 0 -584266.803 10743389.065 23147784.222 10 0 60966 68400.00000 0 -3381812.907 10173594.808 23168659.864 10 0 60966 69300.00000 0 -6189093.059 9818598.373 22740708.894 10 0 60966 70200.00000 0 -8935394.404 9680441.353 21872339.891 10 0 60966 71100.00000 0 -11551494.042 9748681.284 20580456.542 10 0 60966 72000.00000 0 -13972297.563 10000921.035 18890127.488 10 0 60966 72900.00000 0 -16139312.008 10403853.064 16834102.577 10 0 60966 73800.00000 0 -18002852.550 10914774.490 14452184.437 10 0 60966 74700.00000 0 -19523892.960 11483509.609 11790466.733 10 0 60966 75600.00000 0 -20675484.404 12054659.695 8900452.815 10 0 60966 76500.00000 0 -21443684.563 12570086.288 5838070.622 10 0 60966 77400.00000 0 -21827959.045 12971524.322 2662601.748 10 0 60966 78300.00000 0 -21841038.567 13203215.765 -564455.642 10 0 60966 79200.00000 0 -21508237.849 13214453.226 -3780568.989 10 0 60966 80100.00000 0 -20866264.363 12961926.334 -6923376.304 10 0 60966 81000.00000 0 -19961566.376 12411771.514 -9931891.028 10 0 60966 81900.00000 0 -18848288.988 11541237.780 -12747683.637 10 0 60966 82800.00000 0 -17585923.432 10339896.908 -15316017.028 10 0 60966 83700.00000 0 -16236747.907 8810345.128 -17586913.480 10 0 60966 84600.00000 0 -14863167.166 6968364.591 -19516132.190 10 0 60966 85500.00000 0 -13525062.583 4842535.375 -21066037.913 10 0 60967 0.00000 0 -12277264.286 2473312.036 -22206343.250 10 0 60967 900.00000 0 -11167251.254 -88400.379 -22914710.070 10 0 60967 1800.00000 0 -10233178.255 -2783110.218 -23177196.197 10 0 60967 2700.00000 0 -9502310.926 -5544971.183 -22988539.950 10 0 60967 3600.00000 0 -8989937.227 -8304287.441 -22352274.513 10 0 60967 4500.00000 0 -8698801.036 -10990189.460 -21280669.710 10 0 60967 5400.00000 0 -8619082.396 -13533369.124 -19794501.360 10 0 60967 6300.00000 0 -8728925.600 -15868760.022 -17922651.933 10 0 60967 7200.00000 0 -8995492.890 -17938050.602 -15701549.723 10 0 60967 8100.00000 0 -9376499.001 -19691924.729 -13174457.158 10 0 60967 9000.00000 0 -9822161.044 -21091935.384 -10390622.098 10 0 60967 9900.00000 0 -10277480.230 -22111932.699 -7404309.104 10 0 60967 10800.00000 0 -10684757.522 -22738986.416 -4273730.289 10 0 60967 11700.00000 0 -10986235.123 -22973764.478 -1059897.680 10 0 60967 12600.00000 0 -11126750.302 -22830352.698 2174579.155 10 0 60967 13500.00000 0 -11056287.538 -22335524.496 5366725.344 10 0 60967 14400.00000 0 -10732319.588 -21527493.169 8454437.377 10 0 60967 15300.00000 0 -10121837.351 -20454201.220 11377698.833 10 0 60967 16200.00000 0 -9202982.102 -19171220.815 14079750.607 10 0 60967 17100.00000 0 -7966210.895 -17739355.536 16508192.406 10 0 60967 18000.00000 0 -6414946.160 -16222045.832 18615994.106 10 0 60967 18900.00000 0 -4565682.461 -14682688.122 20362397.889 10 0 60967 19800.00000 0 -2447546.365 -13181980.380 21713694.682 10 0 60967 20700.00000 0 -101328.218 -11775405.161 22643861.186 10 0 60967 21600.00000 0 2421973.539 -10510954.507 23135046.747 10 0 60967 22500.00000 0 5063034.992 -9427190.397 23177902.325 10 0 60967 23400.00000 0 7756438.463 -8551720.044 22771746.696 10 0 60967 24300.00000 0 10433161.479 -7900147.729 21924567.970 10 0 60967 25200.00000 0 13023221.009 -7475545.047 20652861.309 10 0 60967 26100.00000 0 15458364.775 -7268459.992 18981306.437 10 0 60967 27000.00000 0 17674699.740 -7257463.209 16942291.211 10 0 60967 27900.00000 0 19615150.480 -7410207.634 14575289.994 10 0 60967 28800.00000 0 21231646.922 -7684956.802 11926108.138 10 0 60967 29700.00000 0 22486951.944 -8032517.732 9046006.136 10 0 60967 30600.00000 0 23356053.805 -8398497.608 5990719.207 10 0 60967 31500.00000 0 23827066.014 -8725789.946 2819390.182 10 0 60967 32400.00000 0 23901597.343 -8957186.168 -406564.784 10 0 60967 33300.00000 0 23594576.389 -9038003.028 -3624636.613 10 0 60967 34200.00000 0 22933537.564 -8918615.266 -6772427.613 10 0 60967 35100.00000 0 21957397.776 -8556786.459 -9788856.827 10 0 60967 36000.00000 0 20714774.261 -7919699.047 -12615343.278 10 0 60967 36900.00000 0 19261913.330 -6985596.743 -15196944.146 10 0 60967 37800.00000 0 17660316.179 -5744968.464 -17483425.606 10 0 60967 38700.00000 0 15974160.784 -4201221.828 -19430245.263 10 0 60967 39600.00000 0 14267627.690 -2370815.585 -20999426.611 10 0 60967 40500.00000 0 12602241.718 -282842.841 -22160308.019 10 0 60967 41400.00000 0 11034341.151 2021919.953 -22890151.054 10 0 60967 42300.00000 0 9612780.848 4492460.797 -23174595.588 10 0 60967 43200.00000 0 8376966.047 7069418.231 -23007952.056 10 0 60967 44100.00000 0 7355299.820 9687328.588 -22393324.329 10 0 60967 45000.00000 0 6564109.873 12277141.672 -21342559.921 10 0 60967 45900.00000 0 6007100.144 14768900.496 -19876027.671 10 0 60967 46800.00000 0 5675350.434 17094473.316 -18022226.440 10 0 60967 47700.00000 0 5547864.031 19190223.542 -15817231.886 10 0 60967 48600.00000 0 5592639.825 20999505.349 -13303991.789 10 0 60967 49500.00000 0 5768222.865 22474879.859 -10531483.598 10 0 60967 50400.00000 0 6025666.748 23579958.386 -7553751.086 10 0 60967 51300.00000 0 6310823.333 24290795.049 -4428839.577 10 0 60967 52200.00000 0 6566861.192 24596770.186 -1217651.600 10 0 60967 53100.00000 0 6736904.324 24500927.873 2017253.379 10 0 60967 54000.00000 0 6766677.559 24019754.241 5212890.277 10 0 60967 54900.00000 0 6607045.026 23182407.251 8307085.407 10 0 60967 55800.00000 0 6216332.881 22029432.027 11239693.753 10 0 60967 56700.00000 0 5562337.158 20611017.625 13953771.930 10 0 60967 57600.00000 0 4623931.400 18984870.358 16396683.515 10 0 60967 58500.00000 0 3392206.145 17213794.589 18521115.242 10 0 60967 59400.00000 0 1871092.499 15363083.670 20285984.852 10 0 60967 60300.00000 0 77443.945 13497830.953 21657223.996 10 0 60967 61200.00000 0 -1959426.620 11680273.389 22608422.312 10 0 60967 62100.00000 0 -4198734.972 9967278.049 23121321.814 10 0 60967 63000.00000 0 -6589697.486 8408075.222 23186153.661 10 0 60967 63900.00000 0 -9073425.856 7042330.948 22801812.337 10 0 60967 64800.00000 0 -11585166.454 5898637.295 21975865.176 10 0 60967 65700.00000 0 -14056792.297 4993481.201 20724397.969 10 0 60967 66600.00000 0 -16419445.487 4330732.866 19071700.160 10 0 60967 67500.00000 0 -18606221.930 3901673.259 17049795.734 10 0 60967 68400.00000 0 -20554788.504 3685558.235 14697828.476 10 0 60967 69300.00000 0 -22209825.427 3650694.752 12061312.735 10 0 60967 70200.00000 0 -23525193.623 3755983.681 9191263.174 10 0 60967 71100.00000 0 -24465737.869 3952864.440 6143219.168 10 0 60967 72000.00000 0 -25008651.195 4187580.072 2976181.569 10 0 60967 72900.00000 0 -25144343.802 4403667.851 -248518.684 10 0 60967 73800.00000 0 -24876779.993 4544570.995 -3468399.142 10 0 60967 74700.00000 0 -24223268.476 4556261.622 -6621029.457 10 0 60967 75600.00000 0 -23213713.966 4389764.298 -9645237.187 10 0 60967 76500.00000 0 -21889360.470 4003473.252 -12482292.651 10 0 60967 77400.00000 0 -20301077.820 3365164.636 -15077049.837 10 0 60967 78300.00000 0 -18507262.295 2453617.610 -17379021.060 10 0 60967 79200.00000 0 -16571438.375 1259774.136 -19343364.222 10 0 60967 80100.00000 0 -14559661.463 -212613.470 -20931763.021 10 0 60967 81000.00000 0 -12537829.889 -1946876.876 -22113182.503 10 0 60967 81900.00000 0 -10569018.529 -3913874.898 -22864484.647 10 0 60967 82800.00000 0 -8710945.728 -6072969.357 -23170891.270 10 0 60967 83700.00000 0 -7013679.726 -8373494.977 -23026284.488 10 0 60967 84600.00000 0 -5517680.973 -10756663.741 -22433338.020 10 0 60967 85500.00000 0 -4252262.675 -13157825.428 -21403475.883 10 0 60968 0.00000 0 -3234534.487 -15508990.547 -19956658.595 10 0 60968 900.00000 0 -2468873.261 -17741511.788 -18120999.432 10 0 60968 1800.00000 0 -1946944.302 -19788808.552 -15932219.634 10 0 60968 2700.00000 0 -1648269.930 -21589024.206 -13432950.306 10 0 60968 3600.00000 0 -1541321.993 -23087500.850 -10671896.402 10 0 60968 4500.00000 0 -1585090.470 -24238968.185 -7702878.787 10 0 60968 5400.00000 0 -1731060.414 -25009353.711 -4583773.885 10 0 60968 6300.00000 0 -1925511.868 -25377137.685 -1375372.625 10 0 60968 7200.00000 0 -2112043.405 -25334195.809 1859817.700 10 0 60968 8100.00000 0 -2234210.483 -24886094.577 5058803.880 10 0 60968 9000.00000 0 -2238165.028 -24051827.726 8159344.128 10 0 60968 9900.00000 0 -2075182.923 -22863006.154 11101166.927 10 0 60968 10800.00000 0 -1703971.275 -21362536.929 13827146.691 10 0 60968 11700.00000 0 -1092657.218 -19602848.563 16284412.914 10 0 60968 12600.00000 0 -220373.972 -17643738.589 18425371.132 10 0 60968 13500.00000 0 921622.570 -15549934.963 20208616.452 10 0 60968 14400.00000 0 2329353.370 -13388474.125 21599722.840 10 0 60968 15300.00000 0 3986056.612 -11226005.557 22571894.219 10 0 60968 16200.00000 0 5862670.968 -9126134.899 23106466.339 10 0 60968 17100.00000 0 7918841.331 -7146915.334 23193251.342 10 0 60968 18000.00000 0 10104405.042 -5338590.142 22830719.913 10 0 60968 18900.00000 0 12361297.101 -3741678.431 22026018.823 10 0 60968 19800.00000 0 14625795.816 -2385481.481 20794824.446 10 0 60968 20700.00000 0 16831016.600 -1287069.706 19161035.632 10 0 60968 21600.00000 0 18909551.553 -450790.338 17156311.927 10 0 60968 22500.00000 0 20796146.600 131685.387 14819465.674 10 0 60968 23400.00000 0 22430306.212 480778.814 12195719.050 10 0 60968 24300.00000 0 23758718.629 627909.548 9335839.385 10 0 60968 25200.00000 0 24737401.544 613936.455 6295168.331 10 0 60968 26100.00000 0 25333479.378 487199.469 3132562.525 10 0 60968 27000.00000 0 25526518.163 301244.269 -90734.881 10 0 60968 27900.00000 0 25309362.034 112325.273 -3312270.913 10 0 60968 28800.00000 0 24688435.671 -23208.179 -6469585.592 10 0 60968 29700.00000 0 23683499.121 -51532.329 -9501418.093 10 0 60968 30600.00000 0 22326864.030 76134.525 -12348893.088 10 0 60968 31500.00000 0 20662102.830 401226.340 -14956664.299 10 0 60968 32400.00000 0 18742303.602 955832.709 -17273992.913 10 0 60968 33300.00000 0 16627942.452 1761096.929 -19255739.621 10 0 60968 34200.00000 0 14384461.433 2826078.097 -20863250.567 10 0 60968 35100.00000 0 12079652.528 4147127.276 -22065119.451 10 0 60968 36000.00000 0 9780956.542 5707806.305 -22837810.359 10 0 60968 36900.00000 0 7552789.598 7479355.038 -23166128.447 10 0 60968 37800.00000 0 5454008.915 9421689.675 -23043528.575 10 0 60968 38700.00000 0 3535623.965 11484892.376 -22472254.992 10 0 60968 39600.00000 0 1838848.942 13611131.318 -21463308.491 10 0 60968 40500.00000 0 393578.259 15736931.942 -20036240.824 10 0 60968 41400.00000 0 -782650.970 17795704.855 -18218779.591 10 0 60968 42300.00000 0 -1685166.066 19720424.518 -16046290.342 10 0 60968 43200.00000 0 -2322114.654 21446346.038 -13561086.020 10 0 60968 44100.00000 0 -2713871.895 22913645.352 -10811597.166 10 0 60968 45000.00000 0 -2891925.228 24069870.970 -7851419.433 10 0 60968 45900.00000 0 -2897285.194 24872103.293 -4738257.691 10 0 60968 46800.00000 0 -2778491.344 25288729.863 -1532788.331 10 0 60968 47700.00000 0 -2589299.587 25300761.333 1702536.693 10 0 60968 48600.00000 0 -2386150.975 24902632.677 4904719.330 10 0 60968 49500.00000 0 -2225531.131 24102456.284 8011453.036 10 0 60968 50400.00000 0 -2161333.866 22921717.096 10962343.088 10 0 60968 51300.00000 0 -2242341.999 21394423.826 13700084.888 10 0 60968 52200.00000 0 -2509932.834 19565753.263 16171576.846 10 0 60968 53100.00000 0 -2996105.694 17490246.022 18328946.083 10 0 60968 54000.00000 0 -3721914.724 15229630.534 20130467.576 10 0 60968 54900.00000 0 -4696372.616 12850367.222 21541359.811 10 0 60968 55800.00000 0 -5915870.778 10421015.826 22534442.861 10 0 60968 56700.00000 0 -7364139.652 8009535.437 23090647.676 10 0 60968 57600.00000 0 -9012750.345 5680628.878 23199368.419 10 0 60968 58500.00000 0 -10822136.302 3493240.522 22858652.533 10 0 60968 59400.00000 0 -12743092.443 1498309.716 22075226.258 10 0 60968 60300.00000 0 -14718689.700 -263128.986 20864356.025 10 0 60968 61200.00000 0 -16686525.958 -1761422.083 19249549.003 10 0 60968 62100.00000 0 -18581220.787 -2979290.725 17262098.658 10 0 60968 63000.00000 0 -20337051.371 -3912302.294 14940483.739 10 0 60968 63900.00000 0 -21890621.148 -4568801.949 12329631.652 10 0 60968 64800.00000 0 -23183451.215 -4969308.227 9480059.432 10 0 60968 65700.00000 0 -24164387.431 -5145398.751 6446907.784 10 0 60968 66600.00000 0 -24791723.382 -5138133.070 3288885.732 10 0 60968 67500.00000 0 -25034950.761 -4996078.832 67145.171 10 0 60968 68400.00000 0 -24876063.749 -4773024.064 -3155893.877 10 0 60968 69300.00000 0 -24310362.163 -4525471.564 -6317745.228 10 0 60968 70200.00000 0 -23346718.682 -4310020.757 -9357062.980 10 0 60968 71100.00000 0 -22007297.614 -4180747.405 -12214829.318 10 0 60968 72000.00000 0 -20326735.453 -4186691.975 -14835500.632 10 0 60968 72900.00000 0 -18350815.920 -4369563.279 -17168089.606 10 0 60968 73800.00000 0 -16134693.371 -4761755.302 -19167161.959 10 0 60968 74700.00000 0 -13740737.489 -5384762.261 -20793728.031 10 0 60968 75600.00000 0 -11236088.189 -6248060.454 -22016011.366 10 0 60968 76500.00000 0 -8690021.962 -7348506.002 -22810078.737 10 0 60968 77400.00000 0 -6171239.072 -8670275.987 -23160318.610 10 0 60968 78300.00000 0 -3745184.534 -10185357.615 -23059757.975 10 0 60968 79200.00000 0 -1471514.626 -11854566.865 -22510210.485 10 0 60968 80100.00000 0 598185.136 -13629055.570 -21522252.159 10 0 60968 81000.00000 0 2422335.092 -15452244.961 -20115024.229 10 0 60968 81900.00000 0 3970868.503 -17262105.331 -18315866.208 10 0 60968 82800.00000 0 5226247.549 -18993686.374 -16159785.723 10 0 60968 83700.00000 0 6183945.920 -20581791.671 -13688775.089 10 0 60968 84600.00000 0 6852378.376 -21963684.286 -10950987.902 10 0 60968 85500.00000 0 7252281.277 -23081708.685 -7999792.047 10 0 60969 0.00000 0 7415571.577 -23885717.474 -4892718.577 10 0 60969 900.00000 0 7383734.280 -24335200.084 -1690326.281 10 0 60969 1800.00000 0 7205808.361 -24401021.827 1544990.377 10 0 60969 2700.00000 0 6936058.793 -24066700.975 4750230.841 10 0 60969 3600.00000 0 6631435.071 -23329168.821 7863026.028 10 0 60969 4500.00000 0 6348925.898 -22198981.539 10822860.093 10 0 60969 5400.00000 0 6142923.583 -20699975.634 13572251.357 10 0 60969 6300.00000 0 6062710.747 -18868382.504 16057868.895 10 0 60969 7200.00000 0 6150176.215 -16751440.461 18231562.953 10 0 60969 8100.00000 0 6437856.602 -14405563.529 20051289.671 10 0 60969 9000.00000 0 6947385.805 -11894144.456 21481913.088 10 0 60969 9900.00000 0 7688416.990 -9285084.221 22495870.166 10 0 60969 10800.00000 0 8658061.543 -6648150.944 23073687.522 10 0 60969 11700.00000 0 9840867.720 -4052277.512 23204341.514 10 0 60969 12600.00000 0 11209339.224 -1562909.092 22885456.272 10 0 60969 13500.00000 0 12724971.691 760490.967 22123337.197 10 0 60969 14400.00000 0 14339763.834 2866675.363 20932840.276 10 0 60969 15300.00000 0 15998140.573 4714496.662 19337080.319 10 0 60969 16200.00000 0 17639208.713 6274364.738 17366983.851 10 0 60969 17100.00000 0 19199252.129 7529219.427 15060695.007 10 0 60969 18000.00000 0 20614363.527 8474979.682 12462845.197 10 0 60969 18900.00000 0 21823104.111 9120452.052 9623699.718 10 0 60969 19800.00000 0 22769081.099 9486703.281 6598196.647 10 0 60969 20700.00000 0 23403336.061 9605923.892 3444895.458 10 0 60969 21600.00000 0 23686444.508 9519830.597 224854.605 10 0 60969 22500.00000 0 23590238.733 9277674.504 -2999541.231 10 0 60969 23400.00000 0 23099081.118 8933938.643 -6165782.197 10 0 60969 24300.00000 0 22210633.535 8545821.417 -9212439.923 10 0 60969 25200.00000 0 20936089.148 8170611.840 -12080356.692 10 0 60969 26100.00000 0 19299855.228 7863067.232 -14713794.064 10 0 60969 27000.00000 0 17338698.383 7672904.268 -17061518.579 10 0 60969 27900.00000 0 15100386.108 7642509.853 -19077803.172 10 0 60969 28800.00000 0 12641879.685 7804969.383 -20723324.381 10 0 60969 29700.00000 0 10027152.378 8182496.834 -21965937.415 10 0 60969 30600.00000 0 7324722.720 8785334.480 -22781313.357 10 0 60969 31500.00000 0 4605004.896 9611170.385 -23153425.388 10 0 60969 32400.00000 0 1937586.120 10645100.100 -23074873.764 10 0 60969 33300.00000 0 -611455.789 11860136.004 -22547042.357 10 0 60969 34200.00000 0 -2982082.732 13218244.522 -21580082.843 10 0 60969 35100.00000 0 -5122568.920 14671868.929 -20192725.936 10 0 60969 36000.00000 0 -6991420.615 16165874.617 -18411922.622 10 0 60969 36900.00000 0 -8558862.689 17639835.379 -16272321.707 10 0 60969 37800.00000 0 -9807829.850 19030564.448 -13815593.558 10 0 60969 38700.00000 0 -10734421.397 20274783.122 -11089613.115 10 0 60969 39600.00000 0 -11347801.184 21311813.656 -8147518.442 10 0 60969 40500.00000 0 -11669548.204 22086181.702 -5046663.868 10 0 60969 41400.00000 0 -11732486.782 22550017.327 -1847489.127 10 0 60969 42300.00000 0 -11579047.687 22665152.172 1387672.126 10 0 60969 43200.00000 0 -11259231.545 22404823.389 4595819.738 10 0 60969 44100.00000 0 -10828262.904 21754911.999 7714525.085 10 0 60969 45000.00000 0 -10344036.270 20714663.354 10683154.238 10 0 60969 45900.00000 0 -9864463.952 19296859.758 13444051.462 10 0 60969 46800.00000 0 -9444839.255 17527438.625 15943659.447 10 0 60969 47700.00000 0 -9135327.245 15444573.155 18133554.390 10 0 60969 48600.00000 0 -8978689.312 13097255.017 19971376.243 10 0 60969 49500.00000 0 -9008337.161 10543439.130 21421637.004 10 0 60969 50400.00000 0 -9246797.474 7847828.598 22456392.644 10 0 60969 51300.00000 0 -9704650.792 5079392.165 23055767.217 10 0 60969 52200.00000 0 -10379988.062 2308717.089 23208320.646 10 0 60969 53100.00000 0 -11258406.572 -394693.534 22911254.661 10 0 60969 54000.00000 0 -12313544.688 -2965068.260 22170454.240 10 0 60969 54900.00000 0 -13508132.532 -5342851.658 21000364.810 10 0 60969 55800.00000 0 -14795514.653 -7476924.590 19423708.145 10 0 60969 56700.00000 0 -16121581.432 -9326470.507 17471042.621 10 0 60969 57600.00000 0 -17427029.235 -10862412.470 15180176.020 10 0 60969 58500.00000 0 -18649855.821 -12068363.039 12595441.550 10 0 60969 59400.00000 0 -19727987.730 -12941049.143 9766850.162 10 0 60969 60300.00000 0 -20601930.754 -13490195.392 6749134.362 10 0 60969 61200.00000 0 -21217333.310 -13737871.471 3600700.893 10 0 60969 62100.00000 0 -21527355.809 -13717331.291 382511.398 10 0 60969 63000.00000 0 -21494746.703 -13471392.593 -2843088.247 10 0 60969 63900.00000 0 -21093537.702 -13050424.809 -6013568.044 10 0 60969 64800.00000 0 -20310286.084 -12510029.465 -9067420.669 10 0 60969 65700.00000 0 -19144810.580 -11908510.411 -11945351.949 10 0 60969 66600.00000 0 -17610388.242 -11304240.239 -14591431.915 10 0 60969 67500.00000 0 -15733401.987 -10753033.882 -16954184.030 10 0 60969 68400.00000 0 -13552451.487 -10305640.393 -18987591.155 10 0 60969 69300.00000 0 -11116962.462 -10005459.230 -20651998.285 10 0 60969 70200.00000 0 -8485350.596 -9886578.234 -21914893.980 10 0 60969 71100.00000 0 -5722814.986 -9972217.157 -22751554.697 10 0 60969 72000.00000 0 -2898851.892 -10273643.755 -23145538.721 10 0 60969 72900.00000 0 -84591.428 -10789609.601 -23089019.317 10 0 60969 73800.00000 0 2649932.398 -11506330.979 -22582949.735 10 0 60969 74700.00000 0 5238464.717 -12398017.093 -21637055.948 10 0 60969 75600.00000 0 7621054.075 -13427924.589 -20269656.386 10 0 60969 76500.00000 0 9746312.432 -14549894.861 -18507311.384 10 0 60969 77400.00000 0 11573316.262 -15710309.822 -16384308.540 10 0 60969 78300.00000 0 13073069.169 -16850383.708 -13941993.659 10 0 60969 79200.00000 0 14229464.886 -17908693.764 -11227960.216 10 0 60969 80100.00000 0 15039710.714 -18823842.154 -8295113.507 10 0 60969 81000.00000 0 15514194.525 -19537135.500 -5200628.366 10 0 60969 81900.00000 0 15675802.254 -19995167.578 -2004821.810 10 0 60969 82800.00000 0 15558716.370 -20152194.686 1230036.109 10 0 60969 83700.00000 0 15206748.088 -19972202.201 4440948.608 10 0 60969 84600.00000 0 14671275.923 -19430574.199 7565430.309 10 0 60969 85500.00000 0 14008879.919 -18515295.204 10542731.738 99